KLM3237 EHAM-LIMC

Flight info

Callsign KLM3237
Flight time 1h 23m
Altitude 37000
Route IVLU4W EDUPO Z739 MISGO ASBON TUSUK KRH NATOR TRA RIPUS GERSA SOSON DEGAD Z424 RIXUV RIXU3E
Aircraft B738/M-VGDW/C

Departure

Time 2026-05-05 18:15
Airport Amsterdam Airport Schiphol (EHAM)

Arrival

Time 2026-05-05 19:38
Airport Milan Malpensa International Airport (LIMC)
Time Latitude Longitude Altitude Speed Heading
2026-05-05 17:48 52.30623 4.76631 -2 ft 0 kts 239°
2026-05-05 18:03 52.30628 4.76644 -2 ft 2 kts 239°
2026-05-05 18:03 52.30636 4.76664 -2 ft 2 kts 239°
2026-05-05 18:03 52.30643 4.76685 -2 ft 2 kts 239°
2026-05-05 18:03 52.30651 4.76706 -2 ft 2 kts 239°
2026-05-05 18:04 52.30655 4.76729 -2 ft 2 kts 271°
2026-05-05 18:04 52.30653 4.76754 -2 ft 2 kts 296°
2026-05-05 18:04 52.30646 4.76770 -2 ft 0 kts 317°
2026-05-05 18:04 52.30642 4.76775 -2 ft 0 kts 322°
2026-05-05 18:07 52.30643 4.76775 -2 ft 0 kts 322°
2026-05-05 18:07 52.30660 4.76747 -2 ft 5 kts 319°
2026-05-05 18:07 52.30706 4.76713 -2 ft 9 kts 10°
2026-05-05 18:08 52.30714 4.76804 -2 ft 8 kts 126°
2026-05-05 18:08 52.30666 4.76865 -2 ft 9 kts 129°
2026-05-05 18:08 52.30646 4.76981 -2 ft 11 kts 126°
2026-05-05 18:08 52.30571 4.77066 -2 ft 13 kts 147°
2026-05-05 18:09 52.30498 4.77048 -2 ft 12 kts 236°
2026-05-05 18:09 52.30439 4.76896 -2 ft 18 kts 238°
2026-05-05 18:09 52.30369 4.76713 -2 ft 19 kts 237°
2026-05-05 18:09 52.30299 4.76529 -2 ft 19 kts 238°
2026-05-05 18:10 52.30226 4.76342 -2 ft 19 kts 238°
2026-05-05 18:10 52.30152 4.76151 -2 ft 19 kts 238°
2026-05-05 18:10 52.30082 4.75967 -2 ft 19 kts 238°
2026-05-05 18:10 52.30009 4.75776 -2 ft 20 kts 238°
2026-05-05 18:11 52.29934 4.75582 -2 ft 18 kts 238°
2026-05-05 18:11 52.29875 4.75426 -2 ft 15 kts 238°
2026-05-05 18:11 52.29832 4.75265 -2 ft 17 kts 270°
2026-05-05 18:11 52.29899 4.75086 -2 ft 17 kts 311°
2026-05-05 18:12 52.29975 4.74945 -2 ft 15 kts 311°
2026-05-05 18:12 52.30049 4.74807 -2 ft 17 kts 311°
2026-05-05 18:12 52.30136 4.74647 -2 ft 19 kts 312°
2026-05-05 18:12 52.30228 4.74475 -2 ft 20 kts 312°
2026-05-05 18:13 52.30310 4.74325 -2 ft 14 kts 309°
2026-05-05 18:13 52.30342 4.74194 -2 ft 11 kts 275°
2026-05-05 18:13 52.30325 4.74074 -2 ft 10 kts 243°
2026-05-05 18:13 52.30275 4.73984 -2 ft 12 kts 218°
2026-05-05 18:14 52.30208 4.73899 -2 ft 9 kts 223°
2026-05-05 18:14 52.30187 4.73823 -2 ft 7 kts 270°
2026-05-05 18:14 52.30217 4.73746 -2 ft 10 kts 334°
2026-05-05 18:14 52.30300 4.73743 -2 ft 13 kts
2026-05-05 18:15 52.30475 4.73761 -2 ft 57 kts
2026-05-05 18:15 52.31166 4.73823 -1 ft 139 kts
2026-05-05 18:15 52.32242 4.73945 456 ft 168 kts
2026-05-05 18:15 52.33404 4.74181 1215 ft 181 kts 12°
2026-05-05 18:16 52.34708 4.75032 1630 ft 224 kts 20°
2026-05-05 18:16 52.36227 4.75972 2267 ft 239 kts 19°
2026-05-05 18:16 52.37722 4.77120 2828 ft 240 kts 32°
2026-05-05 18:16 52.38980 4.78944 3430 ft 242 kts 41°
2026-05-05 18:17 52.40172 4.80894 4060 ft 245 kts 42°
2026-05-05 18:17 52.41342 4.82946 4674 ft 255 kts 49°
2026-05-05 18:17 52.42169 4.85535 5250 ft 264 kts 69°
2026-05-05 18:17 52.42417 4.88567 5845 ft 273 kts 88°
2026-05-05 18:18 52.42406 4.91679 6485 ft 277 kts 88°
2026-05-05 18:18 52.42374 4.94814 7093 ft 282 kts 94°
2026-05-05 18:18 52.41845 4.98018 7733 ft 296 kts 114°
2026-05-05 18:18 52.40801 5.00864 8332 ft 296 kts 132°
2026-05-05 18:19 52.39262 5.03039 8950 ft 295 kts 151°
2026-05-05 18:19 52.37471 5.04719 9600 ft 296 kts 149°
2026-05-05 18:19 52.35763 5.06608 10231 ft 298 kts 148°
2026-05-05 18:19 52.34079 5.08561 10868 ft 309 kts 144°
2026-05-05 18:20 52.32479 5.11094 11566 ft 328 kts 135°
2026-05-05 18:20 52.30919 5.13912 12310 ft 341 kts 135°
2026-05-05 18:20 52.29334 5.16801 13014 ft 348 kts 135°
2026-05-05 18:20 52.27701 5.19770 13665 ft 353 kts 135°
2026-05-05 18:21 52.26048 5.22769 14181 ft 356 kts 135°
2026-05-05 18:21 52.24411 5.25831 14678 ft 361 kts 131°
2026-05-05 18:21 52.22948 5.29122 15185 ft 366 kts 129°
2026-05-05 18:21 52.21454 5.32563 15691 ft 370 kts 129°
2026-05-05 18:22 52.19968 5.35984 16191 ft 374 kts 129°
2026-05-05 18:22 52.18464 5.39444 16692 ft 378 kts 129°
2026-05-05 18:22 52.16929 5.42971 17199 ft 382 kts 130°
2026-05-05 18:22 52.15382 5.46516 17703 ft 386 kts 130°
2026-05-05 18:23 52.13819 5.50099 18208 ft 391 kts 130°
2026-05-05 18:23 52.12252 5.53699 18711 ft 395 kts 130°
2026-05-05 18:23 52.10664 5.57338 19217 ft 401 kts 130°
2026-05-05 18:23 52.09016 5.61101 19787 ft 410 kts 130°
2026-05-05 18:24 52.07355 5.64888 20364 ft 419 kts 130°
2026-05-05 18:24 52.05571 5.68654 20923 ft 423 kts 137°
2026-05-05 18:24 52.03640 5.72309 21490 ft 429 kts 137°
2026-05-05 18:24 52.01685 5.75972 22048 ft 436 kts 138°
2026-05-05 18:25 51.99688 5.79697 22613 ft 442 kts 138°
2026-05-05 18:25 51.98335 5.82218 22980 ft 446 kts 138°
2026-05-05 18:25 51.95621 5.87285 23719 ft 453 kts 138°
2026-05-05 18:25 51.93420 5.90938 24230 ft 450 kts 147°
2026-05-05 18:26 51.91026 5.94138 24736 ft 453 kts 149°
2026-05-05 18:26 51.88567 5.97363 25297 ft 457 kts 149°
2026-05-05 18:26 51.86082 6.00614 25860 ft 461 kts 149°
2026-05-05 18:26 51.83570 6.03895 26400 ft 464 kts 150°
2026-05-05 18:27 51.81065 6.07162 26905 ft 468 kts 150°
2026-05-05 18:27 51.78530 6.10463 27407 ft 472 kts 150°
2026-05-05 18:27 51.75969 6.13794 27910 ft 475 kts 150°
2026-05-05 18:27 51.73376 6.17161 28416 ft 478 kts 150°
2026-05-05 18:28 51.68222 6.23839 29412 ft 483 kts 151°
2026-05-05 18:28 51.65609 6.27217 29913 ft 484 kts 151°
2026-05-05 18:28 51.62983 6.30605 30414 ft 486 kts 151°
2026-05-05 18:29 51.60323 6.34032 30920 ft 487 kts 151°
2026-05-05 18:29 51.57691 6.37418 31420 ft 487 kts 152°
2026-05-05 18:29 51.55070 6.40784 31917 ft 487 kts 152°
2026-05-05 18:29 51.52435 6.44162 32417 ft 487 kts 152°
2026-05-05 18:30 51.49780 6.47561 32921 ft 487 kts 152°
2026-05-05 18:30 51.47151 6.50922 33421 ft 486 kts 152°
2026-05-05 18:30 51.44512 6.54289 33923 ft 484 kts 153°
2026-05-05 18:30 51.41905 6.57610 34424 ft 482 kts 153°
2026-05-05 18:31 51.39269 6.60963 34933 ft 480 kts 153°
2026-05-05 18:31 51.36705 6.64223 35431 ft 477 kts 153°
2026-05-05 18:31 51.34105 6.67529 35924 ft 473 kts 154°
2026-05-05 18:31 51.31545 6.70772 36364 ft 470 kts 154°
2026-05-05 18:32 51.29011 6.73979 36754 ft 469 kts 154°
2026-05-05 18:32 51.26439 6.77223 36799 ft 476 kts 154°
2026-05-05 18:32 51.21169 6.83867 36834 ft 492 kts 153°
2026-05-05 18:33 51.15688 6.90766 36827 ft 500 kts 153°
2026-05-05 18:33 51.10280 6.97551 36826 ft 497 kts 153°
2026-05-05 18:34 51.04818 7.04368 36831 ft 502 kts 153°
2026-05-05 18:34 50.99314 7.11213 36832 ft 506 kts 151°
2026-05-05 18:35 50.93765 7.18106 36834 ft 510 kts 150°
2026-05-05 18:35 50.88183 7.25025 36832 ft 511 kts 149°
2026-05-05 18:36 50.82581 7.31955 36832 ft 510 kts 149°
2026-05-05 18:36 50.76992 7.38833 36834 ft 510 kts 149°
2026-05-05 18:37 50.71405 7.45688 36835 ft 510 kts 149°
2026-05-05 18:37 50.65531 7.51497 36823 ft 493 kts 164°
2026-05-05 18:38 50.62313 7.53373 36818 ft 481 kts 173°
2026-05-05 18:38 50.59106 7.54457 36817 ft 469 kts 182°
2026-05-05 18:38 50.55918 7.54792 36817 ft 456 kts 191°
2026-05-05 18:38 50.52766 7.54595 36825 ft 458 kts 189°
2026-05-05 18:39 50.49596 7.55135 36852 ft 471 kts 180°
2026-05-05 18:39 50.46345 7.56107 36819 ft 475 kts 178°
2026-05-05 18:39 50.39887 7.58236 36813 ft 475 kts 178°
2026-05-05 18:40 50.33425 7.60388 36821 ft 475 kts 178°
2026-05-05 18:40 50.27008 7.62520 36832 ft 475 kts 178°
2026-05-05 18:41 50.20566 7.64655 36840 ft 475 kts 178°
2026-05-05 18:41 50.14138 7.66780 36828 ft 473 kts 178°
2026-05-05 18:42 50.07690 7.68903 36828 ft 474 kts 178°
2026-05-05 18:42 50.01273 7.71012 36830 ft 474 kts 178°
2026-05-05 18:43 49.94805 7.73132 36832 ft 474 kts 178°
2026-05-05 18:43 49.88412 7.75222 36828 ft 474 kts 178°
2026-05-05 18:44 49.81977 7.77320 36816 ft 474 kts 178°
2026-05-05 18:44 49.78781 7.78363 37246 ft 467 kts 178°
2026-05-05 18:44 49.75610 7.79392 37712 ft 463 kts 179°
2026-05-05 18:45 49.72498 7.80402 38186 ft 458 kts 179°
2026-05-05 18:45 49.69418 7.81400 38627 ft 453 kts 179°
2026-05-05 18:45 49.66357 7.82387 38766 ft 457 kts 179°
2026-05-05 18:45 49.63233 7.83392 38793 ft 463 kts 179°
2026-05-05 18:46 49.56897 7.85435 38815 ft 475 kts 178°
2026-05-05 18:46 49.50417 7.87525 38802 ft 475 kts 178°
2026-05-05 18:47 49.43976 7.89591 38804 ft 473 kts 178°
2026-05-05 18:47 49.37578 7.91638 38806 ft 474 kts 178°
2026-05-05 18:48 49.31158 7.93686 38807 ft 474 kts 178°
2026-05-05 18:48 49.24697 7.95743 38812 ft 474 kts 178°
2026-05-05 18:49 49.18310 7.97770 38821 ft 474 kts 178°
2026-05-05 18:49 49.11868 7.99809 38829 ft 474 kts 178°
2026-05-05 18:50 49.05405 8.01837 38833 ft 478 kts 177°
2026-05-05 18:50 48.98906 8.03881 38833 ft 482 kts 176°
2026-05-05 18:51 48.92353 8.05947 38834 ft 483 kts 175°
2026-05-05 18:51 48.85801 8.08006 38828 ft 482 kts 175°
2026-05-05 18:52 48.79341 8.10024 38829 ft 482 kts 175°
2026-05-05 18:52 48.72795 8.12064 38829 ft 482 kts 175°
2026-05-05 18:53 48.66244 8.14099 38830 ft 482 kts 175°
2026-05-05 18:53 48.59723 8.16119 38831 ft 482 kts 175°
2026-05-05 18:54 48.53169 8.18145 38831 ft 482 kts 175°
2026-05-05 18:54 48.46642 8.20157 38832 ft 482 kts 175°
2026-05-05 18:55 48.40070 8.22178 38833 ft 482 kts 175°
2026-05-05 18:55 48.33543 8.24179 38833 ft 482 kts 175°
2026-05-05 18:56 48.26977 8.26188 38834 ft 482 kts 175°
2026-05-05 18:56 48.20436 8.28183 38835 ft 482 kts 175°
2026-05-05 18:57 48.13883 8.30177 38837 ft 482 kts 175°
2026-05-05 18:57 48.07348 8.32160 38851 ft 482 kts 175°
2026-05-05 18:58 48.00787 8.34145 38870 ft 482 kts 175°
2026-05-05 18:58 47.94230 8.36125 38883 ft 482 kts 175°
2026-05-05 18:59 47.87662 8.38103 38884 ft 482 kts 175°
2026-05-05 18:59 47.81224 8.40036 38886 ft 482 kts 175°
2026-05-05 19:00 47.74754 8.41974 38886 ft 482 kts 175°
2026-05-05 19:00 47.68312 8.43742 38875 ft 477 kts 180°
2026-05-05 19:01 47.61762 8.44770 38889 ft 476 kts 181°
2026-05-05 19:01 47.55260 8.45731 38889 ft 476 kts 181°
2026-05-05 19:02 47.48743 8.46689 38889 ft 476 kts 181°
2026-05-05 19:02 47.42245 8.47643 38890 ft 476 kts 181°
2026-05-05 19:03 47.35653 8.48608 38368 ft 475 kts 181°
2026-05-05 19:03 47.32423 8.49081 37930 ft 473 kts 181°
2026-05-05 19:03 47.29149 8.49558 37440 ft 473 kts 181°
2026-05-05 19:04 47.25879 8.50034 36960 ft 474 kts 181°
2026-05-05 19:04 47.22614 8.50511 36482 ft 474 kts 181°
2026-05-05 19:04 47.19356 8.50985 36004 ft 475 kts 181°
2026-05-05 19:04 47.16108 8.51459 35528 ft 475 kts 181°
2026-05-05 19:05 47.12829 8.51937 35049 ft 476 kts 181°
2026-05-05 19:05 47.09509 8.52421 34566 ft 478 kts 181°
2026-05-05 19:05 47.06206 8.52901 34088 ft 479 kts 181°
2026-05-05 19:05 47.02912 8.53380 33614 ft 479 kts 181°
2026-05-05 19:06 46.99620 8.53849 33138 ft 479 kts 181°
2026-05-05 19:06 46.96323 8.54324 32659 ft 478 kts 180°
2026-05-05 19:06 46.93034 8.54798 32189 ft 478 kts 179°
2026-05-05 19:06 46.89866 8.55256 31769 ft 477 kts 178°
2026-05-05 19:07 46.86479 8.55746 31332 ft 476 kts 178°
2026-05-05 19:07 46.83200 8.56226 30900 ft 477 kts 178°
2026-05-05 19:07 46.79908 8.56705 30470 ft 478 kts 178°
2026-05-05 19:07 46.76651 8.57173 30059 ft 479 kts 178°
2026-05-05 19:08 46.73328 8.57652 29639 ft 477 kts 178°
2026-05-05 19:08 46.70043 8.58123 29114 ft 469 kts 178°
2026-05-05 19:08 46.66839 8.58579 28608 ft 461 kts 178°
2026-05-05 19:08 46.63717 8.59023 28109 ft 456 kts 178°
2026-05-05 19:09 46.60572 8.59469 27623 ft 457 kts 178°
2026-05-05 19:09 46.57375 8.59924 27143 ft 462 kts 177°
2026-05-05 19:09 46.54177 8.60383 26677 ft 464 kts 177°
2026-05-05 19:09 46.50964 8.60842 26246 ft 464 kts 177°
2026-05-05 19:10 46.47778 8.61229 25806 ft 463 kts 181°
2026-05-05 19:10 46.44602 8.61160 25318 ft 460 kts 186°
2026-05-05 19:10 46.41515 8.60511 24992 ft 440 kts 196°
2026-05-05 19:10 46.38712 8.59178 24953 ft 414 kts 207°
2026-05-05 19:11 46.36275 8.57207 24947 ft 390 kts 219°
2026-05-05 19:11 46.34280 8.54633 24935 ft 382 kts 230°
2026-05-05 19:11 46.32275 8.52089 24992 ft 394 kts 220°
2026-05-05 19:11 46.29999 8.49803 24981 ft 401 kts 215°
2026-05-05 19:12 46.27410 8.48249 24973 ft 410 kts 195°
2026-05-05 19:12 46.24562 8.47929 25005 ft 410 kts 182°
2026-05-05 19:12 46.21759 8.48138 24976 ft 393 kts 179°
2026-05-05 19:12 46.19122 8.48450 24923 ft 378 kts 178°
2026-05-05 19:13 46.16492 8.48798 24368 ft 379 kts 178°
2026-05-05 19:13 46.13908 8.49156 23826 ft 376 kts 177°
2026-05-05 19:13 46.11320 8.49652 23248 ft 374 kts 168°
2026-05-05 19:13 46.08995 8.50723 22721 ft 366 kts 163°
2026-05-05 19:14 46.06636 8.51916 22167 ft 358 kts 162°
2026-05-05 19:14 46.04325 8.53149 21616 ft 350 kts 161°
2026-05-05 19:14 46.02059 8.54369 21075 ft 342 kts 161°
2026-05-05 19:14 45.99878 8.55543 20970 ft 330 kts 161°
2026-05-05 19:15 45.97739 8.56693 20999 ft 338 kts 161°
2026-05-05 19:15 45.95500 8.57896 20626 ft 348 kts 161°
2026-05-05 19:15 45.93260 8.59098 20126 ft 345 kts 161°
2026-05-05 19:15 45.91040 8.60286 19618 ft 338 kts 161°
2026-05-05 19:16 45.88978 8.61898 19096 ft 335 kts 143°
2026-05-05 19:16 45.87176 8.63968 18585 ft 331 kts 141°
2026-05-05 19:16 45.85414 8.66017 17947 ft 329 kts 142°
2026-05-05 19:16 45.83653 8.68059 17319 ft 325 kts 142°
2026-05-05 19:17 45.81899 8.70091 16683 ft 321 kts 142°
2026-05-05 19:17 45.80196 8.72062 16059 ft 316 kts 142°
2026-05-05 19:17 45.78503 8.74021 15431 ft 313 kts 142°
2026-05-05 19:17 45.76827 8.75935 14802 ft 309 kts 145°
2026-05-05 19:18 45.75006 8.77505 14171 ft 305 kts 152°
2026-05-05 19:18 45.73166 8.78930 13546 ft 301 kts 152°
2026-05-05 19:18 45.71315 8.80355 12912 ft 298 kts 152°
2026-05-05 19:18 45.69510 8.81744 12287 ft 295 kts 152°
2026-05-05 19:19 45.67719 8.83122 11661 ft 292 kts 152°
2026-05-05 19:19 45.65963 8.84471 11041 ft 290 kts 152°
2026-05-05 19:19 45.64191 8.85832 10461 ft 286 kts 152°
2026-05-05 19:19 45.62447 8.87157 9876 ft 282 kts 155°
2026-05-05 19:20 45.60606 8.87986 9268 ft 280 kts 168°
2026-05-05 19:20 45.58727 8.88525 8701 ft 277 kts 169°
2026-05-05 19:20 45.56820 8.89047 8113 ft 274 kts 169°
2026-05-05 19:20 45.54985 8.89546 7544 ft 272 kts 169°
2026-05-05 19:21 45.53120 8.90053 6962 ft 271 kts 169°
2026-05-05 19:21 45.51305 8.90546 6410 ft 268 kts 169°
2026-05-05 19:21 45.49499 8.91036 6039 ft 259 kts 169°
2026-05-05 19:21 45.47770 8.91506 6013 ft 245 kts 169°
2026-05-05 19:22 45.46145 8.91948 5985 ft 233 kts 169°
2026-05-05 19:22 45.44589 8.92370 5976 ft 221 kts 169°
2026-05-05 19:22 45.43103 8.92775 5998 ft 217 kts 169°
2026-05-05 19:22 45.41614 8.93181 6026 ft 221 kts 169°
2026-05-05 19:23 45.40095 8.93594 6025 ft 223 kts 169°
2026-05-05 19:23 45.38603 8.93997 5997 ft 215 kts 169°
2026-05-05 19:23 45.37146 8.94391 5998 ft 209 kts 169°
2026-05-05 19:23 45.35725 8.94776 6019 ft 210 kts 169°
2026-05-05 19:24 45.34283 8.95167 6022 ft 212 kts 168°
2026-05-05 19:24 45.32825 8.95562 6021 ft 213 kts 169°
2026-05-05 19:24 45.31374 8.95956 6020 ft 212 kts 169°
2026-05-05 19:24 45.29932 8.96345 6020 ft 212 kts 168°
2026-05-05 19:25 45.28486 8.96739 6020 ft 212 kts 168°
2026-05-05 19:25 45.27042 8.97131 6019 ft 212 kts 168°
2026-05-05 19:25 45.25583 8.97526 6019 ft 213 kts 168°
2026-05-05 19:25 45.24080 8.97935 6031 ft 224 kts 168°
2026-05-05 19:26 45.22553 8.98350 6020 ft 224 kts 169°
2026-05-05 19:26 45.21013 8.98761 6016 ft 223 kts 168°
2026-05-05 19:26 45.19479 8.99174 5879 ft 228 kts 168°
2026-05-05 19:26 45.17911 8.99595 5497 ft 231 kts 168°
2026-05-05 19:27 45.16354 9.00011 5157 ft 228 kts 168°
2026-05-05 19:27 45.14804 9.00281 4833 ft 227 kts 186°
2026-05-05 19:27 45.13350 8.99484 4502 ft 225 kts 219°
2026-05-05 19:27 45.12437 8.97752 4192 ft 220 kts 251°
2026-05-05 19:28 45.12341 8.95664 4014 ft 208 kts 287°
2026-05-05 19:28 45.13079 8.93970 4033 ft 204 kts 320°
2026-05-05 19:28 45.14193 8.92700 4043 ft 208 kts 322°
2026-05-05 19:28 45.15339 8.91442 4049 ft 206 kts 323°
2026-05-05 19:29 45.16459 8.90220 4152 ft 204 kts 323°
2026-05-05 19:29 45.17604 8.88973 4058 ft 207 kts 323°
2026-05-05 19:29 45.18736 8.87742 4045 ft 206 kts 323°
2026-05-05 19:29 45.19884 8.86495 4040 ft 206 kts 323°
2026-05-05 19:30 45.21025 8.85254 4040 ft 206 kts 323°
2026-05-05 19:30 45.22165 8.84016 4059 ft 205 kts 323°
2026-05-05 19:30 45.23294 8.82789 4051 ft 207 kts 323°
2026-05-05 19:30 45.24460 8.81601 4117 ft 205 kts 332°
2026-05-05 19:31 45.25845 8.81125 4063 ft 206 kts 358°
2026-05-05 19:31 45.27276 8.81132 4066 ft 206 kts
2026-05-05 19:31 45.28688 8.81281 4046 ft 206 kts
2026-05-05 19:31 45.30136 8.81414 4044 ft 206 kts
2026-05-05 19:32 45.31566 8.81382 4037 ft 206 kts 358°
2026-05-05 19:32 45.32977 8.81233 4035 ft 206 kts 355°
2026-05-05 19:32 45.34414 8.80998 4034 ft 206 kts 353°
2026-05-05 19:32 45.35825 8.80712 4034 ft 206 kts 352°
2026-05-05 19:33 45.37235 8.80387 4031 ft 206 kts 351°
2026-05-05 19:33 45.38654 8.80036 4031 ft 206 kts 351°
2026-05-05 19:33 45.40050 8.79674 4029 ft 206 kts 350°
2026-05-05 19:33 45.41454 8.79301 4029 ft 206 kts 350°
2026-05-05 19:34 45.42857 8.78922 4029 ft 205 kts 350°
2026-05-05 19:34 45.44167 8.78562 3969 ft 177 kts 349°
2026-05-05 19:34 45.45327 8.78241 3987 ft 168 kts 350°
2026-05-05 19:35 45.47679 8.77598 3566 ft 173 kts 350°
2026-05-05 19:35 45.48867 8.77271 3335 ft 173 kts 350°
2026-05-05 19:35 45.50045 8.76946 3105 ft 172 kts 350°
2026-05-05 19:35 45.51209 8.76624 2874 ft 172 kts 350°
2026-05-05 19:36 45.52391 8.76298 2640 ft 171 kts 350°
2026-05-05 19:36 45.53548 8.75978 2418 ft 169 kts 350°
2026-05-05 19:36 45.54663 8.75668 2177 ft 160 kts 350°
2026-05-05 19:36 45.55751 8.75367 1963 ft 158 kts 350°
2026-05-05 19:37 45.56825 8.75071 1746 ft 154 kts 350°
2026-05-05 19:37 45.57841 8.74788 1525 ft 147 kts 350°
2026-05-05 19:37 45.58840 8.74512 1338 ft 147 kts 350°
2026-05-05 19:37 45.59851 8.74232 1153 ft 147 kts 350°
2026-05-05 19:38 45.60858 8.73953 959 ft 146 kts 350°
2026-05-05 19:38 45.61840 8.73679 781 ft 140 kts 349°
2026-05-05 19:38 45.62568 8.73477 775 ft 50 kts 349°
2026-05-05 19:38 45.62827 8.73404 775 ft 38 kts 349°
2026-05-05 19:39 45.63063 8.73324 775 ft 26 kts 340°
2026-05-05 19:39 45.63191 8.73189 775 ft 18 kts 314°
2026-05-05 19:39 45.63261 8.73068 775 ft 13 kts 306°
2026-05-05 19:39 45.63305 8.72976 775 ft 9 kts 304°
2026-05-05 19:40 45.63357 8.72866 775 ft 16 kts 303°
2026-05-05 19:40 45.63407 8.72718 775 ft 16 kts 281°
2026-05-05 19:40 45.63401 8.72569 775 ft 14 kts 259°
2026-05-05 19:40 45.63384 8.72437 775 ft 13 kts 259°
2026-05-05 19:41 45.63365 8.72300 775 ft 15 kts 257°
2026-05-05 19:41 45.63341 8.72140 775 ft 17 kts 259°
2026-05-05 19:41 45.63334 8.72079 775 ft 0 kts 259°
2026-05-05 19:42 45.63332 8.72067 775 ft 2 kts 259°
2026-05-05 19:42 45.63325 8.72019 775 ft 7 kts 255°
2026-05-05 19:42 45.63275 8.71974 775 ft 10 kts 176°
2026-05-05 19:43 45.63210 8.71990 775 ft 8 kts 169°
2026-05-05 19:43 45.63161 8.72002 775 ft 8 kts 169°
2026-05-05 19:43 45.63093 8.72020 775 ft 11 kts 169°
2026-05-05 19:43 45.63000 8.72045 775 ft 15 kts 170°
2026-05-05 19:44 45.62884 8.72077 775 ft 18 kts 168°
2026-05-05 19:44 45.62774 8.72107 775 ft 13 kts 170°
2026-05-05 19:44 45.62711 8.72111 775 ft 7 kts 202°
2026-05-05 19:44 45.62682 8.72041 775 ft 9 kts 256°
2026-05-05 19:45 45.62665 8.71935 775 ft 12 kts 259°
2026-05-05 19:45 45.62662 8.71854 775 ft 5 kts 295°
2026-05-05 19:45 45.62689 8.71824 775 ft 5 kts 346°
2026-05-05 19:45 45.62717 8.71860 775 ft 8 kts 73°
2026-05-05 19:46 45.62727 8.71912 775 ft 1 kts 78°
2026-05-05 19:46 45.62727 8.71916 775 ft 0 kts 78°
2026-05-05 19:46 45.62727 8.71917 775 ft 0 kts 78°